shijiazhuang , China , ASIA

  • Thursday
    April 27

    Sunny  Sunny

    81 °F  59 °F

    West  West

        

  • Friday
    April 28

    Sunny  Sunny

    86 °F  61 °F

    West  North

        

  • Saturday
    April 29

    Sunny  Sunny

    90 °F  59 °F

    South  North

        

  • Sunday
    April 30

    Sunny  Cloudy

    82 °F  59 °F

    Northeast  North

        

  • Monday
    May 1

    Cloudy  Cloudy

    77 °F  59 °F

    North  North

        

  • Tuesday
    May 2

    Cloudy  Cloudy

    79 °F  59 °F

    East  North

        

  • Wednesday
    May 3

    Light rain  Moderate rain

    72 °F  59 °F

    South  North

        

Date   Weather Temperature Humidity Total_rain Visibility Wind
11:00 Sunny 77°F 19.3% 0mm 999.9km Northwest  3.8m/s
14:00 Sunny 80°F 19.3% 0mm 999.9km Northwest  3.8m/s
17:00 Sunny 79°F 25.9% 0mm 999.9km Northwest  3.9m/s
20:00 Sunny 66°F 29% 0mm 999.9km Northwest  3.4m/s
23:00 Sunny 64°F 32.4% 0mm 999.9km Northwest  3.1m/s
02:00 Sunny 59°F 36.7% 0mm 999.9km Northwest  3.4m/s
05:00 Sunny 60°F 31% 0mm 999.9km Northwest  3.7m/s
08:00 Sunny 71°F 17.6% 0mm 999.9km Northwest  2.8m/s
11:00 Sunny 81°F 17% 0mm 999.9km Northwest  3.4m/s
14:00 Sunny 86°F 18.4% 0mm 999.9km Northwest  3.7m/s
17:00 Sunny 85°F 21.4% 0mm 999.9km Northwest  3.4m/s
20:00 Sunny 71°F 36.2% 0mm 999.9km Northwest  3.2m/s
23:00 Sunny 69°F 36.9% 0mm 999.9km Northwest  2.9m/s
02:00 Sunny 62°F 48.6% 0mm 999.9km Northwest  3.0m/s
05:00 Sunny 61°F 45.8% 0mm 999.9km Northwest  3.1m/s
08:00 Sunny 71°F 31.5% 0mm 999.9km Northwest  2.2m/s
11:00 Sunny 84°F 16.3% 0mm 999.9km Southwest  2.0m/s
14:00 Sunny 89°F 15.3% 0mm 999.9km Southwest  2.2m/s
17:00 Sunny 88°F 18.4% 0mm 999.9km Southwest  2.6m/s
20:00 Sunny 70°F 25.1% 0mm 999.9km Southwest  3.0m/s
23:00 Sunny 70°F 29.8% 0mm 999.9km Southwest  2.7m/s
02:00 Sunny 59°F 40.9% 0mm 999.9km Southwest  2.9m/s
05:00 Sunny 60°F 35% 0mm 999.9km Northwest  3.0m/s
08:00 Sunny 69°F 31.7% 0mm 999.9km Southwest  1.5m/s
11:00 Sunny 74°F 20.3% 0mm 999.9km Northeast  2.0m/s
14:00 Sunny 82°F 26.5% 0mm 999.9km Northeast  3.2m/s
17:00 Sunny 80°F 20% 0mm 999.9km Northeast  2.9m/s
20:00 Sunny 75°F 27.1% 0mm 999.9km Northeast  3.9m/s
23:00 Cloudy 67°F 37.7% 0mm 999.9km Northwest  3.6m/s
02:00 Cloudy 62°F 47.6% 0mm 999.9km Northeast  1.7m/s
05:00 Cloudy 59°F 53.1% 0mm 999.9km Northeast  1.7m/s
08:00 Cloudy 64°F 44.2% 0mm 999.9km Northeast  1.5m/s
11:00 Cloudy 72°F 27.5% 0mm 999.9km Northeast  2.5m/s
14:00 Cloudy 77°F 40.6% 0mm 999.9km Northeast  2.7m/s
17:00 Cloudy 76°F 40.3% 0mm 999.9km Northeast  2.7m/s
20:00 Cloudy 71°F 39.9% 0mm 999.9km Northeast  3.2m/s
23:00 Cloudy 62°F 35.9% 0mm 999.9km Southwest  2.3m/s
02:00 Cloudy 60°F 52.7% 0mm 999.9km Northeast  2.3m/s
05:00 Cloudy 59°F 46.2% 0mm 999.9km Southwest  3.3m/s
08:00 Cloudy 68°F 36.5% 0mm 999.9km Northeast  1.2m/s
11:00 Cloudy 78°F 28.2% 0mm 999.9km Southeast  2.6m/s
14:00 Cloudy 78°F 37.4% 0mm 999.9km Southeast  2.5m/s
17:00 Cloudy 73°F 49.9% 0mm 999.9km Southeast  5.7m/s
20:00 Cloudy 68°F 77.1% 0mm 999.9km Southeast  3.0m/s
23:00 Cloudy 65°F 88.1% 0mm 999.9km Southwest  3.6m/s
02:00 Cloudy 62°F 69.1% 0mm 999.9km Southwest  1.3m/s
05:00 Cloudy 59°F 79.3% 0mm 999.9km Southwest  2.1m/s
08:00 Cloudy 70°F 89.5% 0mm 999.9km Southeast  0.5m/s
11:00 Overcast 71°F 56.6% 0mm 999.9km Southeast  3.8m/s
14:00 Light rain 71°F 61.9% 0.1mm 999.9km Southeast  2.4m/s
17:00 Light rain 65°F 72.1% 0.1mm 999.9km Southwest  2.6m/s
20:00 Moderate rain 62°F 84.4% 9.7mm 999.9km Northwest  2.9m/s
23:00 Light rain 60°F 96.6% 2.6mm 999.9km Northwest  3.9m/s
02:00 Moderate rain 60°F 97% 6mm 999.9km Northwest  3.2m/s
05:00 Light rain 59°F 98% 0.1mm 999.9km Northwest  2.1m/s